Hourly Data Report for September 02, 2017

All times are specified in Local Standard Time (LST). Add 1 hour to adjust for Daylight Saving Time where and when it is observed.

IQALUIT CLIMATE
NUNAVUT

63°44'50.000" N
68°32'40.000" W
33.50 m
2402592
71321
XFB

Download Data

Hourly Data (September 2017)
Hourly Data Report for September 2, 2017
Temp Definition
°C
Dew Point Temp Definition
°C
Rel Hum Definition
%
Wind Dir Definition
10's deg

Wind Spd Definition
km/h
Visibility Definition
km
Stn Press Definition
kPa
Hmdx Definition


Wind Chill Definition


Weather Definition


TIME
00:00 7.4 4.8 84 23 13   100.16     LegendNANA
01:00 7.3 5.6 89 15 8   100.10     LegendNANA
02:00 8.0 6.0 87 20 6   100.09     LegendNANA
03:00 5.9 4.9 93 15 13   100.09     LegendNANA
04:00 5.0 4.3 96 12 11   100.07     LegendNANA
05:00 5.6 5.1 97 13 8   100.05     LegendNANA
06:00 6.7 6.1 96 15 5   100.09     LegendNANA
07:00 6.8 6.1 95 13 5   100.13     LegendNANA
08:00 7.4 6.5 94 11 3   100.16     LegendNANA
09:00 7.5 6.5 93 13 4   100.13     LegendNANA
10:00 7.7 6.5 92 14 3   100.18     LegendNANA
11:00 7.2 5.7 90 13 4   100.18     LegendNANA
12:00 7.2 6.0 92 17 8   100.21     LegendNANA
13:00 5.2 4.5 95 14 8   100.20     LegendNANA
14:00 6.5 5.9 96 14 8   100.17     LegendNANA
15:00 5.5 5.0 97 14 19   100.23     LegendNANA
16:00 6.5 6.1 97 16 15   100.24     LegendNANA
17:00 5.5 5.1 97 15 12   100.27     LegendNANA
18:00 6.1 5.7 97 14 10   100.25     LegendNANA
19:00 6.1 5.6 97 15 19   100.23     LegendNANA
20:00 4.7 4.2 97 14 23   100.26     LegendNANA
21:00 4.9 4.4 96 16 14   100.26     LegendNANA
22:00 4.9 4.3 96 16 18   100.23     LegendNANA
23:00 4.2 3.5 95 17 25   100.25     LegendNANA

Notes on Data Quality.

Legend

  • E = Estimated
  • M = Missing
  • NA = Not Available
  • ‡ = Partner data that is not subject to review by the National Climate Archives
Date modified: